Location: Newark
(44.9000°N, 9.6000°E)
Time: 21:08:28
(UTC+00:00)

ISS - Pass Details

Date: 27 January 2020
Orbit: 415 x 422 km, 51.6° (Epoch: 24 February)

Event Time Altitude Azimuth Distance (km) Brightness Sun altitude
Rises 18:11:46 0° 280° (W) 2,377 1.4 -19.4°
Reaches altitude 10° 18:14:06 10° 294° (WNW) 1,511 -0.1 -19.8°
Enters shadow 18:17:01 26° 353° (N) 870 -2.2 -20.4°
